Weather Roundup
Issued by NWS Springfield, MO

Home | Current Version | Previous Version | Text Only | Print | Product List | Glossary On
Versions: 1 2 3 4 5 6 7 8 9 10 11 12 13 14 15 16 17 18 19 20 21 22 23 24 25 26 27 28 29 30 31 32 33 34 35 36 37 38 39 40 41 42 43 44 45 46 47 48 49 50
000
NZUS99 KSGF 240059
HRRSGF

HOURLY WEATHER
NATIONAL WEATHER SERVICE SPRINGFIELD MO
800 PM CDT WED JUL 23 2014

......SGF CWA......

CITY           SKY/WX    TMP DP  RH WIND       PRES   REMARKS
SPRINGFIELD    CLEAR     82  69  64 S10       30.07R
JOPLIN         PTCLDY    84  67  56 N8        30.06S
WEST PLAINS    PTCLDY    73  68  84 W3        30.09F
ROLLA          CLEAR     80  65  59 N10       30.07R
OSAGE BEACH    CLEAR     81  64  57 NE6       30.08R
BRANSON        PTCLDY    81  72  74 CALM      30.09R

......SURROUNDING SGF CWA......

CITY           SKY/WX    TMP DP  RH WIND       PRES   REMARKS
CHANUTE        CLEAR     84  67  56 E7        30.07S
PARSONS        PTCLDY    83  68  60 CALM      30.08R
COFFEYVILLE    PTCLDY    85  69  58 NE8       30.05R
EMPORIA        CLEAR     83  63  50 NE6       30.10R
SILOAM SPRINGS MOCLDY    79  64  61 S6        30.09R
NEAR YELLVILLE MOCLDY    73  70  88 W6        30.06F

......KANSAS AND MISSOURI......

CITY           SKY/WX    TMP DP  RH WIND       PRES   REMARKS
KANSAS CTY INT PTCLDY    81  64  56 NE9       30.11S
DOWNTOWN KC    CLEAR     83  62  49 NE12      30.09R
COLUMBIA       CLEAR     79  63  57 NE10      30.11R
SEDALIA        CLEAR     80  64  58 NE8       30.10S
ST JOSEPH      CLEAR     81  64  56 NE7       30.11R
ST LOUIS       PTCLDY    79  62  56 N13       30.08R
SPIRIT OF STL  CLEAR     78  61  55 NE6       30.07R
KIRKSVILLE     CLEAR     73  60  63 NE7       30.15R
WICHITA        PTCLDY    85  67  54 E9        30.08S
TOPEKA         CLEAR     84  64  50 NE9       30.10R
OLATHE         CLEAR     81  63  54 NE8       30.10R

......TENNESSEE......

CITY           SKY/WX    TMP DP  RH WIND       PRES   REMARKS
MEMPHIS        CLOUDY    75  70  84 SW3       29.98S
NASHVILLE      MOCLDY    83  69  62 W6        29.97R

......ARKANSAS.......

CITY           SKY/WX    TMP DP  RH WIND       PRES   REMARKS
FAYETTEVILLE   MOCLDY    75  67  76 S7        30.08F
FT SMITH       CLOUDY    74  68  81 CALM      30.06S
LITTLE ROCK    LGT RAIN  72  70  93 SW6       30.03F

......OKLAHOMA.......

CITY           SKY/WX    TMP DP  RH WIND       PRES   REMARKS
TULSA          CLOUDY    80  71  74 W3        30.04R
PONCA CITY     PTCLDY    83  69  62 E10       30.07R
MCALESTER      CLOUDY    74  70  87 CALM      30.10R
OKLAHOMA CITY  CLOUDY    88  76  67 E8        30.06R HX  99

......IOWA............

CITY           SKY/WX    TMP DP  RH WIND       PRES   REMARKS
DES MOINES     PTCLDY    79  56  45 E9        30.14S
QUAD CITIES    CLEAR     75  54  47 NE7       30.12R

......ILLINOIS........

CITY           SKY/WX    TMP DP  RH WIND       PRES   REMARKS
QUINCY         MOCLDY    74  59  59 N7        30.13R
CHICAGO        PTCLDY    65  49  56 N12       30.14F



USA.gov is the U.S. government's official web portal to all federal, state and local government web resources and services.